Track IRIDIUM 106 now! 10-day predictions IRIDIUM 106 is classified as:
1 41917U 17003A 23080.47256898 .00000738 00000-0 25660-3 0 9995 2 41917 86.3997 223.1235 0001855 105.1002 255.0399 14.34218177323540